Location: Владивосток
(43.1151°N, 131.8856°E)
Time: 17:16:47
(UTC+10:00)

BlueWalker 3 - Visible Passes

Search period start: 02 December 2022 00:00
Search period end: 12 December 2022 00:00
Orbit: 500 x 519 km, 53.2° (Epoch: 01 December)

Date Brightness Start Highest point End Pass type
(mag) Time Alt. Az. Time Alt. Az. Time Alt. Az.
02 Dec 4.0 19:45:56 10° NW 19:47:52 18° NNW 19:47:52 18° NNW visible
03 Dec 3.8 19:27:34 10° NW 19:30:13 19° N 19:30:13 19° N visible
04 Dec 3.6 19:09:12 10° NW 19:12:07 20° N 19:12:35 19° NNE visible
05 Dec 3.6 18:50:49 10° NW 18:53:46 20° N 18:55:00 17° NE visible
05 Dec 4.8 20:29:21 10° NW 20:29:50 13° NW 20:29:50 13° NW visible
06 Dec 3.6 18:32:25 10° NW 18:35:24 20° N 18:37:29 14° NE visible
06 Dec 4.1 20:10:57 10° NW 20:12:19 20° NW 20:12:19 20° NW visible
07 Dec 3.5 18:14:01 10° NW 18:17:02 21° N 18:20:02 10° ENE visible
07 Dec 3.3 19:52:31 10° NW 19:54:53 32° NNW 19:54:53 32° NNW visible
08 Dec 2.2 19:34:06 10° NW 19:37:34 53° N 19:37:34 53° N visible
09 Dec 1.9 19:15:41 10° NW 19:19:33 60° NNE 19:20:25 46° E visible
09 Dec 5.2 20:54:56 10° W 20:55:16 12° W 20:55:16 12° W visible
10 Dec 1.9 18:57:15 10° NW 19:01:08 64° NNE 19:03:28 22° ESE visible
10 Dec 4.7 20:36:35 10° W 20:38:21 18° WSW 20:38:21 18° WSW visible
11 Dec 1.9 18:38:48 10° NW 18:42:42 67° NNE 18:46:34 10° ESE visible
11 Dec 4.4 20:18:15 10° W 20:21:00 19° SW 20:21:43 18° SW visible
